Location: Chilton Park
(37.7711°N, 100.0276°W)
Time: 22:36:54
(UTC+00:00)

Cosmos 1898 Rocket - Pass Details

Date: 11 July 2022
Orbit: 754 x 782 km, 74.0° (Epoch: 07 August)

Event Time Altitude Azimuth Distance (km) Brightness Sun altitude
Rises 06:11:01 0° 351° (N) 3,213 7.9 -29.6°
Reaches altitude 10° 06:13:36 10° 1° (N) 2,285 6.9 -29.7°
Enters shadow 06:18:06 33° 61° (ENE) 1,243 4.7 -29.8°
